EA2DK Weather Reports


time (UTC)temp
F
wind
direction
speed
knots
gust
knots
rain 1hr
in
rain 24hr
in
rain mn
in
humidity
%
barometer
mb
20260504044504 58 177 1.7 2.6 0.00 0.00 0.00 63 1015.3
20260504043004 58 151 1.7 5.2 0.00 0.00 0.00 62 1015.2
20260504041504 58 151 1.7 6.1 0.00 0.00 0.00 62 1015.3
20260504040004 58 163 3.5 8.7 0.00 0.00 0.00 62 1015.5
20260504034504 58 200 4.3 8.7 0.00 0.00 0.00 63 1015.4
20260504033004 58 218 4.3 7.0 0.00 0.00 0.00 63 1015.5
20260504031504 58 161 2.6 7.0 0.00 0.00 0.00 63 1015.6
20260504030005 58 216 2.6 7.0 0.00 0.00 0.00 62 1015.7
20260504023004 58 175 1.7 2.6 0.00 0.00 0.00 61 1015.7
20260504021504 58 192 2.6 4.3 0.00 0.00 0.00 61 1015.7
20260504020004 58 194 2.6 4.3 0.00 0.00 0.00 61 1015.6
20260504013004 58 195 2.6 5.2 0.00 0.00 0.00 62 1015.7
20260504010004 58 176 2.6 4.3 0.00 0.00 0.00 61 1015.6
20260504003004 59 187 1.7 10.4 0.00 0.00 0.00 60 1015.4
20260504001504 59 168 1.7 5.2 0.00 0.00 0.00 60 1015.3
20260504000004 59 203 3.5 8.7 0.00 0.00 0.00 59 1015.3
20260503234504 59 209 5.2 12.2 0.00 0.00 0.00 60 1015.5
20260503233004 60 229 6.1 13.0 0.00 0.00 0.00 59 1015.3
20260503231504 59 257 6.1 14.8 0.00 0.00 0.00 64 1015.6
20260503224504 59 275 1.7 7.8 0.00 0.00 0.00 67 1015.2
20260503223004 59 202 0.0 2.6 0.00 0.00 0.00 67 1014.8
20260503221504 59 202 0.9 2.6 0.00 0.00 0.00 66 1015.0
20260503220004 60 214 0.9 2.6 0.00 0.00 0.00 66 1015.0
20260503210005 61 216 0.9 2.6 0.00 0.00 0.00 64 1015.0
20260503201504 62 272 0.9 2.6 0.00 0.00 0.00 63 1015.1
20260503200005 62 272 0.9 2.6 0.00 0.00 0.00 63 1015.0
20260503194504 62 272 0.9 2.6 0.00 0.00 0.00 63 1014.9
20260503193004 62 276 0.0 7.0 0.00 0.00 0.00 63 1014.7
20260503190004 63 280 5.2 7.8 0.00 0.00 0.00 62 1014.3
20260503184504 64 271 0.0 5.2 0.00 0.00 0.00 63 1014.1
20260503183004 64 273 0.0 2.6 0.00 0.00 0.00 62 1013.7
20260503181505 64 271 0.9 2.6 0.00 0.00 0.00 62 1013.6
20260503180004 65 271 0.0 2.6 0.00 0.00 0.00 61 1013.4
20260503174504 66 311 1.7 2.6 0.00 0.00 0.00 59 1013.2
20260503173004 66 312 0.0 2.6 0.00 0.00 0.00 59 1013.2
20260503171505 66 316 1.7 5.2 0.00 0.00 0.00 58 1013.2
20260503081504 64 115 1.7 2.6 0.00 0.00 0.00 59 1016.1
20260503071504 59 157 0.0 1.7 0.00 0.00 0.00 68 1016.5
20260503054504 56 156 0.9 2.6 0.00 0.00 0.00 67 1016.0
20260503053004 56 156 0.9 2.6 0.00 0.00 0.00 67 1016.0